Time,TemperatureF,DewpointF,PressureIn,WindDirection,WindDirectionDegrees,WindSpeedMPH,WindSpeedGustMPH,Humidity,HourlyPrecipIn,Conditions,Clouds,dailyrainin,SoftwareType,DateUTC
2013-09-11 00:04:00,50.2,49.0,29.66,ENE,60,0.0,0.0,94,0.00,,,0.10,weatherlink.com 1.10,2013-09-11 08:04:00,
2013-09-11 00:19:00,50.4,49.0,29.66,ENE,60,0.0,0.0,94,0.00,,,0.10,weatherlink.com 1.10,2013-09-11 08:19:00,
2013-09-11 00:34:00,50.0,48.0,29.65,ENE,60,0.0,2.0,94,0.00,,,0.10,weatherlink.com 1.10,2013-09-11 08:34:00,
2013-09-11 00:49:00,49.7,48.0,29.65,ENE,60,0.0,1.0,94,0.00,,,0.10,weatherlink.com 1.10,2013-09-11 08:49:00,
2013-09-11 01:04:00,49.8,49.0,29.65,ENE,60,0.0,0.0,95,0.00,,,0.10,weatherlink.com 1.10,2013-09-11 09:04:00,
2013-09-11 01:19:00,50.0,49.0,29.65,ENE,60,0.0,0.0,95,0.01,,,0.11,weatherlink.com 1.10,2013-09-11 09:19:00,
2013-09-11 01:34:00,50.1,49.0,29.64,ENE,60,0.0,0.0,95,0.03,,,0.01,weatherlink.com 1.10,2013-09-11 09:34:00,
2013-09-11 01:49:00,50.3,49.0,29.64,ENE,60,0.0,0.0,95,0.04,,,0.02,weatherlink.com 1.10,2013-09-11 09:49:00,
2013-09-11 02:04:00,50.3,49.0,29.63,ENE,60,0.0,0.0,95,0.06,,,0.04,weatherlink.com 1.10,2013-09-11 10:04:00,
2013-09-11 02:19:00,50.3,49.0,29.62,ENE,60,0.0,1.0,95,0.11,,,0.10,weatherlink.com 1.10,2013-09-11 10:19:00,
2013-09-11 02:34:00,50.2,49.0,29.61,ENE,60,0.0,0.0,95,0.10,,,0.11,weatherlink.com 1.10,2013-09-11 10:34:00,
2013-09-11 02:49:00,49.9,49.0,29.61,ENE,60,0.0,0.0,95,0.10,,,0.12,weatherlink.com 1.10,2013-09-11 10:49:00,
2013-09-11 03:04:00,50.0,49.0,29.61,ENE,60,0.0,0.0,96,0.09,,,0.13,weatherlink.com 1.10,2013-09-11 11:04:00,
2013-09-11 03:19:00,50.1,49.0,29.61,ENE,60,0.0,2.0,96,0.04,,,0.14,weatherlink.com 1.10,2013-09-11 11:19:00,
2013-09-11 03:35:00,49.7,49.0,29.61,ENE,60,0.0,3.0,96,0.05,,,0.16,weatherlink.com 1.10,2013-09-11 11:35:00,
2013-09-11 03:50:00,49.4,48.0,29.61,ENE,60,0.0,3.0,96,0.06,,,0.18,weatherlink.com 1.10,2013-09-11 11:50:00,
2013-09-11 04:20:00,49.0,48.0,29.60,WNW,290,0.0,3.0,97,0.08,,,0.22,weatherlink.com 1.10,2013-09-11 12:20:00,
2013-09-11 04:35:00,48.6,48.0,29.60,WNW,290,0.0,4.0,96,0.08,,,0.24,weatherlink.com 1.10,2013-09-11 12:35:00,
2013-09-11 04:50:00,48.5,48.0,29.60,WNW,290,0.0,1.0,97,0.06,,,0.24,weatherlink.com 1.10,2013-09-11 12:50:00,
2013-09-11 05:05:00,48.5,48.0,29.60,WNW,290,0.0,3.0,97,0.04,,,0.24,weatherlink.com 1.10,2013-09-11 13:05:00,
2013-09-11 05:20:00,48.3,48.0,29.60,WNW,290,0.0,2.0,97,0.02,,,0.24,weatherlink.com 1.10,2013-09-11 13:20:00,
2013-09-11 05:35:00,48.1,47.0,29.60,WNW,290,2.0,3.0,97,0.00,,,0.24,weatherlink.com 1.10,2013-09-11 13:35:00,
2013-09-11 05:50:00,48.1,47.0,29.60,WNW,290,0.0,2.0,97,0.01,,,0.25,weatherlink.com 1.10,2013-09-11 13:50:00,
2013-09-11 06:05:00,48.1,47.0,29.60,WNW,290,2.0,3.0,97,0.01,,,0.25,weatherlink.com 1.10,2013-09-11 14:05:00,
2013-09-11 06:20:00,48.2,47.0,29.60,WNW,290,0.0,5.0,97,0.01,,,0.25,weatherlink.com 1.10,2013-09-11 14:20:00,
2013-09-11 06:35:00,48.5,48.0,29.60,WNW,290,3.0,6.0,97,0.01,,,0.25,weatherlink.com 1.10,2013-09-11 14:35:00,
2013-09-11 06:50:00,48.8,48.0,29.61,WNW,290,3.0,7.0,97,0.01,,,0.26,weatherlink.com 1.10,2013-09-11 14:50:00,
2013-09-11 07:05:00,48.8,48.0,29.61,WNW,288,4.0,6.0,97,0.01,,,0.26,weatherlink.com 1.10,2013-09-11 15:05:00,
2013-09-11 07:20:00,48.6,48.0,29.61,WNW,284,1.0,9.0,97,0.01,,,0.26,weatherlink.com 1.10,2013-09-11 15:20:00,
2013-09-11 07:35:00,48.4,48.0,29.61,WNW,296,2.0,7.0,97,0.01,,,0.26,weatherlink.com 1.10,2013-09-11 15:35:00,
2013-09-11 07:50:00,48.2,47.0,29.62,West,271,3.0,9.0,97,0.00,,,0.26,weatherlink.com 1.10,2013-09-11 15:50:00,
2013-09-11 08:05:00,48.2,47.0,29.62,West,279,0.0,5.0,97,0.00,,,0.26,weatherlink.com 1.10,2013-09-11 16:05:00,
2013-09-11 08:20:00,48.4,48.0,29.63,West,268,4.0,8.0,97,0.00,,,0.26,weatherlink.com 1.10,2013-09-11 16:20:00,
2013-09-11 08:35:00,48.6,48.0,29.63,West,263,3.0,5.0,97,0.00,,,0.26,weatherlink.com 1.10,2013-09-11 16:35:00,
2013-09-11 08:50:00,48.6,48.0,29.64,SW,229,6.0,8.0,98,0.00,,,0.26,weatherlink.com 1.10,2013-09-11 16:50:00,
2013-09-11 09:05:00,48.7,48.0,29.64,West,270,3.0,6.0,98,0.00,,,0.26,weatherlink.com 1.10,2013-09-11 17:05:00,
2013-09-11 09:35:00,48.5,48.0,29.66,WSW,242,3.0,9.0,98,0.01,,,0.27,weatherlink.com 1.10,2013-09-11 17:35:00,
2013-09-11 09:50:00,48.0,48.0,29.66,WSW,241,5.0,9.0,98,0.01,,,0.27,weatherlink.com 1.10,2013-09-11 17:50:00,
2013-09-11 10:05:00,48.0,48.0,29.67,SW,221,3.0,10.0,98,0.01,,,0.27,weatherlink.com 1.10,2013-09-11 18:05:00,
2013-09-11 10:20:00,47.4,47.0,29.68,West,267,4.0,7.0,98,0.01,,,0.27,weatherlink.com 1.10,2013-09-11 18:20:00,
2013-09-11 10:35:00,47.1,47.0,29.69,SW,215,2.0,8.0,98,0.00,,,0.27,weatherlink.com 1.10,2013-09-11 18:35:00,
2013-09-11 10:50:00,46.8,46.0,29.70,SSW,198,5.0,8.0,98,0.01,,,0.28,weatherlink.com 1.10,2013-09-11 18:50:00,
2013-09-11 11:05:00,46.6,46.0,29.71,SW,234,1.0,13.0,98,0.01,,,0.28,weatherlink.com 1.10,2013-09-11 19:05:00,
2013-09-11 11:20:00,46.5,46.0,29.71,SSW,194,7.0,12.0,98,0.01,,,0.28,weatherlink.com 1.10,2013-09-11 19:20:00,
2013-09-11 11:35:00,46.8,46.0,29.72,SW,227,5.0,10.0,98,0.01,,,0.28,weatherlink.com 1.10,2013-09-11 19:35:00,
2013-09-11 11:50:00,46.8,46.0,29.73,SW,217,6.0,12.0,98,0.00,,,0.28,weatherlink.com 1.10,2013-09-11 19:50:00,
2013-09-11 12:05:00,46.7,46.0,29.74,South,176,10.0,13.0,98,0.00,,,0.28,weatherlink.com 1.10,2013-09-11 20:05:00,
2013-09-11 12:21:00,46.7,46.0,29.74,SW,232,4.0,11.0,98,0.00,,,0.28,weatherlink.com 1.10,2013-09-11 20:21:00,
2013-09-11 12:36:00,46.5,46.0,29.75,South,185,4.0,15.0,98,0.00,,,0.28,weatherlink.com 1.10,2013-09-11 20:36:00,
2013-09-11 12:51:00,46.6,46.0,29.75,WSW,238,1.0,15.0,98,0.00,,,0.28,weatherlink.com 1.10,2013-09-11 20:51:00,
2013-09-11 13:06:00,47.6,47.0,29.76,South,190,11.0,15.0,98,0.00,,,0.28,weatherlink.com 1.10,2013-09-11 21:06:00,
2013-09-11 13:21:00,48.1,47.0,29.76,South,188,8.0,14.0,97,0.00,,,0.28,weatherlink.com 1.10,2013-09-11 21:21:00,
2013-09-11 13:36:00,48.5,48.0,29.76,SSW,194,7.0,15.0,96,0.00,,,0.28,weatherlink.com 1.10,2013-09-11 21:36:00,
2013-09-11 13:51:00,48.8,47.0,29.77,SSW,200,5.0,14.0,93,0.00,,,0.28,weatherlink.com 1.10,2013-09-11 21:51:00,
2013-09-11 14:06:00,48.8,47.0,29.78,SW,234,4.0,16.0,92,0.00,,,0.28,weatherlink.com 1.10,2013-09-11 22:06:00,
2013-09-11 14:21:00,49.1,46.0,29.78,WNW,286,7.0,13.0,90,0.00,,,0.28,weatherlink.com 1.10,2013-09-11 22:21:00,
2013-09-11 14:36:00,49.1,45.0,29.78,WSW,238,12.0,12.0,87,0.00,,,0.28,weatherlink.com 1.10,2013-09-11 22:36:00,
2013-09-11 14:51:00,50.4,46.0,29.78,SW,218,4.0,12.0,85,0.00,,,0.28,weatherlink.com 1.10,2013-09-11 22:51:00,
2013-09-11 15:06:00,51.0,46.0,29.79,SSW,209,7.0,11.0,83,0.00,,,0.28,weatherlink.com 1.10,2013-09-11 23:06:00,
2013-09-11 15:21:00,51.2,47.0,29.79,WSW,247,2.0,11.0,85,0.00,,,0.28,weatherlink.com 1.10,2013-09-11 23:21:00,
2013-09-11 15:36:00,51.3,46.0,29.80,WSW,258,3.0,14.0,82,0.00,,,0.28,weatherlink.com 1.10,2013-09-11 23:36:00,
2013-09-11 15:51:00,51.5,46.0,29.80,WSW,243,2.0,11.0,82,0.00,,,0.28,weatherlink.com 1.10,2013-09-11 23:51:00,
2013-09-11 16:06:00,52.6,47.0,29.80,South,170,4.0,10.0,80,0.00,,,0.28,weatherlink.com 1.10,2013-09-12 00:06:00,
2013-09-11 16:21:00,52.7,47.0,29.80,SW,235,4.0,10.0,80,0.00,,,0.28,weatherlink.com 1.10,2013-09-12 00:21:00,
2013-09-11 16:51:00,52.0,46.0,29.82,West,261,4.0,11.0,80,0.00,,,0.28,weatherlink.com 1.10,2013-09-12 00:51:00,
2013-09-11 17:06:00,51.6,46.0,29.82,WSW,240,5.0,9.0,81,0.00,,,0.28,weatherlink.com 1.10,2013-09-12 01:06:00,
2013-09-11 17:21:00,52.3,46.0,29.82,West,259,4.0,11.0,78,0.00,,,0.28,weatherlink.com 1.10,2013-09-12 01:21:00,
2013-09-11 17:36:00,52.5,45.0,29.82,WSW,244,0.0,11.0,76,0.00,,,0.28,weatherlink.com 1.10,2013-09-12 01:36:00,
2013-09-11 17:51:00,52.8,45.0,29.82,South,180,2.0,9.0,74,0.00,,,0.28,weatherlink.com 1.10,2013-09-12 01:51:00,
2013-09-11 18:06:00,52.8,45.0,29.82,WSW,238,3.0,11.0,74,0.00,,,0.28,weatherlink.com 1.10,2013-09-12 02:06:00,
2013-09-11 18:21:00,51.9,44.0,29.82,WSW,249,0.0,11.0,74,0.00,,,0.28,weatherlink.com 1.10,2013-09-12 02:21:00,
2013-09-11 18:36:00,51.8,44.0,29.82,SW,236,6.0,9.0,74,0.00,,,0.28,weatherlink.com 1.10,2013-09-12 02:36:00,
2013-09-11 18:51:00,51.6,45.0,29.82,WSW,238,3.0,5.0,77,0.00,,,0.28,weatherlink.com 1.10,2013-09-12 02:51:00,
2013-09-11 19:06:00,51.3,44.0,29.83,SW,225,1.0,7.0,77,0.00,,,0.28,weatherlink.com 1.10,2013-09-12 03:06:00,
2013-09-11 19:21:00,50.5,44.0,29.83,SW,218,1.0,6.0,79,0.00,,,0.28,weatherlink.com 1.10,2013-09-12 03:21:00,
2013-09-11 19:36:00,50.0,44.0,29.83,SW,217,0.0,5.0,79,0.00,,,0.28,weatherlink.com 1.10,2013-09-12 03:36:00,
2013-09-11 19:51:00,49.8,43.0,29.83,WNW,286,3.0,7.0,78,0.00,,,0.28,weatherlink.com 1.10,2013-09-12 03:51:00,
2013-09-11 20:06:00,49.3,43.0,29.83,WSW,249,4.0,8.0,79,0.00,,,0.28,weatherlink.com 1.10,2013-09-12 04:06:00,
2013-09-11 20:21:00,49.0,43.0,29.84,West,263,3.0,8.0,80,0.00,,,0.28,weatherlink.com 1.10,2013-09-12 04:21:00,
2013-09-11 20:36:00,48.7,43.0,29.84,West,263,4.0,8.0,81,0.00,,,0.28,weatherlink.com 1.10,2013-09-12 04:36:00,
2013-09-11 20:51:00,48.6,43.0,29.85,West,266,5.0,8.0,82,0.00,,,0.28,weatherlink.com 1.10,2013-09-12 04:51:00,
2013-09-11 21:06:00,48.6,43.0,29.86,SW,225,3.0,8.0,82,0.00,,,0.28,weatherlink.com 1.10,2013-09-12 05:06:00,
2013-09-11 21:21:00,48.6,43.0,29.86,WSW,248,2.0,9.0,82,0.00,,,0.28,weatherlink.com 1.10,2013-09-12 05:21:00,
2013-09-11 21:36:00,48.5,44.0,29.87,SW,224,4.0,10.0,84,0.00,,,0.28,weatherlink.com 1.10,2013-09-12 05:36:00,
2013-09-11 21:51:00,48.3,44.0,29.87,West,281,5.0,9.0,85,0.00,,,0.28,weatherlink.com 1.10,2013-09-12 05:51:00,
2013-09-11 22:06:00,48.0,44.0,29.87,SW,223,1.0,5.0,86,0.00,,,0.28,weatherlink.com 1.10,2013-09-12 06:06:00,
2013-09-11 22:22:00,47.8,44.0,29.87,West,277,1.0,7.0,86,0.00,,,0.28,weatherlink.com 1.10,2013-09-12 06:22:00,
2013-09-11 22:37:00,47.4,43.0,29.87,West,265,0.0,6.0,86,0.00,,,0.28,weatherlink.com 1.10,2013-09-12 06:37:00,
2013-09-11 22:52:00,47.3,43.0,29.88,West,265,2.0,8.0,86,0.00,,,0.28,weatherlink.com 1.10,2013-09-12 06:52:00,
2013-09-11 23:07:00,47.1,43.0,29.88,WSW,253,0.0,2.0,85,0.00,,,0.28,weatherlink.com 1.10,2013-09-12 07:07:00,
2013-09-11 23:22:00,46.5,42.0,29.88,WNW,292,1.0,3.0,85,0.00,,,0.28,weatherlink.com 1.10,2013-09-12 07:22:00,
2013-09-11 23:37:00,46.1,42.0,29.89,WNW,292,1.0,3.0,85,0.00,,,0.28,weatherlink.com 1.10,2013-09-12 07:37:00,
2013-09-11 23:52:00,45.9,42.0,29.89,WNW,292,1.0,3.0,85,0.00,,,0.28,weatherlink.com 1.10,2013-09-12 07:52:00,